Flag for Austria Weather past 2 weeks in Waidhofen an der Thaya, Lower Austria, Austria

Now
65 °F

Mild.


Feels Like: 65 °F
Forecast: 50 / 56 °F
Wind: 1 mph from East

Location: Retz

Current Time: Aug 31, 2014 at 12:32:54 PM

Latest Report: Aug 31, 2014 at 11:00 AM


Visibility: N/A

Pressure: 29.94 "Hg

Humidity: 83%

Dew point: 60 °F

Location of Waidhofen an der ThayaLocation

Historic Weather in Waidhofen an der Thaya — Graph

°F

Waidhofen an der Thaya temperature yesterday

Maximum temperature yesterday: 67 °F (at 6:00 PM)
Minimum temperature yesterday: 59 °F (at 5:00 AM)
Average temperature yesterday: 63 °F

Past Weeks' High & Low Weather Summary

 TemperatureHumidityPressure
High75 °F (Aug 18, 5:00 PM)100% (Aug 31, 9:00 AM)30.12 "Hg (Aug 31, 9:00 AM)
Low47 °F (Aug 25, 6:00 AM)42% (Aug 18, 1:00 PM)29.67 "Hg (Aug 26, 4:00 PM)
Average61 °F75%29.97 "Hg
* Reported Aug 16 11:00 AM — Aug 31 11:00 AM, Waidhofen an der Thaya, Weather by CustomWeather, © 2014

Note: Actual official high and low records may vary slightly from our data, if they occured in-between our weather recording intervals... More about our weather records

Advertising

Waidhofen an der Thaya weather history for previous 24 hours

 ConditionsComfort  
Time TempWeatherWind HumidityBarometerVisibility
11:00 AM
Aug 31
65 °FMild.1 mph83%29.94 "HgN/A
10:00 AM61 °FCool.1 mph92%29.96 "HgN/A
9:00 AM57 °FCool.1 mph100%29.98 "HgN/A
8:00 AM56 °FFog.1 mph99%29.98 "Hg0 mi
7:00 AM55 °FFog.No wind98%29.99 "Hg0 mi
6:00 AM56 °FCool.2 mph95%29.99 "HgN/A
5:00 AM60 °FFog.1 mph88%29.99 "HgN/A
4:00 AM58 °FCool.1 mph94%30.01 "HgN/A
3:00 AM59 °FCool.2 mph99%30.02 "HgN/A
2:00 AM58 °FCool.2 mph99%30.03 "HgN/A
1:00 AM60 °FCool.2 mph99%30.03 "HgN/A
12:00 AM61 °FCool.No wind97%30.04 "HgN/A
11:00 PM
Aug 30
61 °FCool.1 mph97%30.05 "HgN/A
10:00 PM62 °FCool.1 mph96%30.04 "HgN/A
9:00 PM62 °FMild.1 mph95%30.03 "HgN/A
8:00 PM63 °FMild.3 mph93%30.03 "HgN/A
7:00 PM65 °FMild.3 mph88%30.02 "HgN/A
6:00 PM67 °FMild.3 mph81%30.02 "HgN/A
5:00 PM67 °FMild.5 mph81%30.03 "HgN/A
4:00 PM67 °FMild.3 mph78%30.04 "HgN/A
3:00 PM66 °FMild.3 mph75%30.06 "HgN/A
2:00 PM65 °FOvercast.6 mph80%30.07 "Hg12 mi
1:00 PM65 °FMild.5 mph84%30.07 "HgN/A
12:00 PM63 °FMild.3 mph92%30.08 "HgN/A
Weather by CustomWeather, © 2014

See weather overviewHow to use our weather pages